Regional Weather Roundup
Issued by NWS Newport/Morehead, NC

Current Version | Previous Version | Graphics & Text | Print | Product List | Glossary Off
Versions: 1 2 3 4 5 6 7 8 9 10 11 12 13 14 15 16 17 18 19 20 21 22 23 24 25 26 27 28 29 30 31 32 33 34 35 36 37 38 39 40 41 42 43 44 45 46 47 48 49 50

000
ASUS42 KMHX 301725
RWRMHX
WEATHER ROUNDUP FOR EASTERN NORTH CAROLINA
NATIONAL WEATHER SERVICE NEWPORT/MOREHEAD CITY NC
100 PM EDT MON MAY 30 2016

NOTE: "FAIR" INDICATES FEW OR NO CLOUDS BELOW 12,000 FEET
WITH NO SIGNIFICANT WEATHER AND/OR OBSTRUCTIONS TO VISIBILITY

NCZ015>017-031-032-045>047-102-103-301800-
NORTH COAST

CITY           SKY/WX    TMP DP  RH WIND       PRES   REMARKS
EDENTON          N/A    N/A N/A N/A MISG        N/A
ELIZABETH CITY LGT RAIN  75  72  90 SE8       30.00F
KITTY HAWK     CLOUDY    73  72  96 CALM      30.00F
MANTEO         NOT AVBL

$$

NCZ045>047-081-094-103-104-301800-
CENTRAL COAST

CITY           SKY/WX    TMP DP  RH WIND       PRES   REMARKS
FRISCO         LGT RAIN  71  70  96 S5        30.02F

$$

NCZ095-097-098-100-101-301800-
SOUTHERN COAST

CITY           SKY/WX    TMP DP  RH WIND       PRES   REMARKS
BEAUFORT       LGT RAIN  73  71  93 SE7       29.98F FOG
CEDAR ISLAND   NOT AVBL
JACKSONVILLE   PTSUNNY   83  67  58 SE12      29.95F
PINEY ISLAND   LGT RAIN N/A N/A N/A E15       29.99F
WILMINGTON     CLOUDY    81  70  69 S10       29.94F


$$

NCZ011>013-027>030-043-044-078>080-089-090>093-098-301800-
COASTAL PLAIN

CITY           SKY/WX    TMP DP  RH WIND       PRES   REMARKS
AHOSKIE        CLOUDY    79  70  74 SE3       29.99S
CLINTON        MOSUNNY   81  74  80 NE5       29.94F
ELIZABETHTOWN  CLOUDY    83  68  62 SE8       29.93F
GOLDSBORO      HVY RAIN  72  72 100 NE10      29.96R VSB 3/4
GREENVILLE     CLOUDY    81  72  74 E5        30.00F
HAVELOCK       LGT RAIN  78  72  81 E12       29.97F
KENANSVILLE    PTSUNNY   80  69  70 E3        29.95F
KINSTON        CLOUDY    75  73  94 CALM      29.98F
NEW BERN       HVY RAIN  73  70  90 W17       29.97F FOG
RICHLANDS      PTSUNNY   84  70  62 VRB7      29.95F
ROCKY MOUNT    PTSUNNY   82  71  69 NE7       29.97F
WASHINGTON     MOSUNNY   80  70  70 SE5       29.97F
WHITEVILLE     CLOUDY    80  69  67 SE6       29.92F

$$

AMZ130-135-150-152-154-156-158-170-250-252-270-ANZ085-086-088-633-658-670-301800-
MARINE OBSERVATIONS

STATION/POSITION TIME  TEMP    WIND        PRES    WAVE   SWELL
                       AIR SEA DIR/SP/G            HT/PER HT/PER
                 (UTC) (F)     (DEG/KT/KT) (MB)    (FT/S) (FT/S)
CHESAPEAKE LIGHT 1700   69     160/ 11/ 12 1016.9
64 E VA BEACH    1650   67 64  180/ 10/ 12 1016.7    5/ 7   5/ 7
DUCK             1700   65 58  140/  8/  9 1015.5
2 E DUCK         1611      62                N/A     3/ 7
OREGON INLET     1700   73 77  160/  6/  9 1016.3
13E OREGON INLT  1700      64                N/A     5/ 7   5/ 7
HATTERAS CG      1700   71 75  140/  5/  8 1016.2
DIAMOND BUOY     1650   73 81  270/ 14/ 17 1016.2    5/ 5   3/ 8
CAPE LOOKOUT     1700   73      40/  7/  8 1014.9
BEAUFORT LAB     1700   72 75  120/  8/  9 1014.5
30 SE NEW RVR IN 1625      76                N/A     6/ 8
27 SE WRIGHTSVLE 1708   79 76  160/  6/ 10 1013.8
5 SE WRIGHTSVLE  1708   78 77  140/  6/ 10 1014.6
225 S CAPE HAT   1650   74 76  150/ 10/ 12 1015.9    5/ 8   5/ 8
41 SE CHARLESTON 1650   74 77  250/ 10/ 12 1012.6    4/ 9   3/ 9

$$




USA.gov is the U.S. government's official web portal to all federal, state and local government web resources and services.